Location: Rio de Janeiro
(22.9068°S, 43.1729°W)
Time: 00:46:06
(UTC-03:00)

Hubble Space Telescope - Pass Details

Date: 01 December 2023
Orbit: 515 x 519 km, 28.5° (Epoch: 02 March)

Event Time Altitude Azimuth Distance (km) Brightness Sun altitude
Exits shadow 03:22:20 35° 240° (WSW) 853 1.5 -20.1°
Maximum altitude 03:23:34 48° 191° (SSW) 688 1.4 -19.9°
Drops below altitude 10° 03:27:31 10° 115° (ESE) 1,763 4.6 -19.1°
Sets 03:29:50 0° 110° (ESE) 2,651 5.8 -18.7°
